This demonstration page uses our WeatherBlox Daily Observations layout. Learn more.

Hourly Observations for September 22, 2019

Temp ( °F °C ) Dew Point ( °F °C ) Humidity (%) Winds ( mph kmh ) Pressure ( in mb ) Visibility ( mi km ) Precip ( " mm )
12:15 am 00:15 Cloudy 67 19.5 48 9.1 51 51 ENE 13 20 29.83 1010 10 16.09344 0 0
12:35 am 00:35 Cloudy 67 19.3 49 9.4 53 53 ENE 10 17 29.83 1010 10 16.09344 0 0
12:55 am 00:55 Cloudy with Nearby Thunderstorms 66 19 49 9.3 54 54 NE 9 15 29.83 1010 10 16.09344 0 0
1:15 am 01:15 Cloudy 65 18.1 51 10.3 61 61 N 7 11 29.85 1011 10 16.09344 0 0
1:35 am 01:35 Cloudy 62 16.6 53 11.6 73 73 WNW 17 28 29.91 1013 10 16.09344 0 0
1:55 am 01:55 Cloudy 64 17.5 49 9.6 60 60 N 17 28 29.88 1012 10 16.09344 0 0
2:15 am 02:15 Cloudy 62 16.8 50 10.2 65 65 N 16 26 29.88 1012 10 16.09344 0 0
2:35 am 02:35 Cloudy 60 15.5 52 11.1 75 75 N 13 20 29.85 1011 10 16.09344 0 0
2:55 am 02:55 Cloudy 60 15.5 53 11.6 78 78 N 14 22 29.88 1012 10 16.09344 0 0
3:15 am 03:15 Cloudy with Light Rain 59 14.9 53 11.7 81 81 N 16 26 29.94 1014 10 16.09344 0 0
3:35 am 03:35 Cloudy with Light Rain 57 14 54 12.3 90 90 NNW 14 22 29.94 1014 10 16.09344 0.01 0.254
3:55 am 03:55 Cloudy with Light Rain 57 13.7 54 12.1 90 90 N 12 19 29.94 1014 10 16.09344 0.01 0.254
4:15 am 04:15 Cloudy 56 13.5 54 12.2 92 92 NNW 9 15 29.94 1014 10 16.09344 0 0
4:35 am 04:35 Cloudy 56 13.3 54 12 92 92 NNW 12 19 29.94 1014 10 16.09344 0 0
4:55 am 04:55 Cloudy 56 13.1 53 11.8 92 92 N 9 15 29.94 1014 10 16.09344 0 0
5:15 am 05:15 Cloudy 56 13.2 53 11.6 90 90 N 14 22 29.94 1014 10 16.09344 0 0
5:35 am 05:35 Cloudy 55 13 53 11.4 90 90 N 13 20 29.94 1014 10 16.09344 0 0
5:55 am 05:55 Cloudy 55 13 53 11.4 90 90 NNW 15 24 29.94 1014 10 16.09344 0 0
6:15 am 06:15 Cloudy 55 13 52 11.1 88 88 N 12 19 29.94 1014 10 16.09344 0 0
6:35 am 06:35 Cloudy 55 13 52 11.1 88 88 N 12 19 29.94 1014 10 16.09344 0 0
6:55 am 06:55 Cloudy 55 13 52 10.9 87 87 N 9 15 29.94 1014 10 16.09344 0 0
7:15 am 07:15 Mostly Cloudy 55 12.7 51 10.6 87 87 N 10 17 29.94 1014 10 16.09344 0 0
7:35 am 07:35 Sunny 54 12.1 51 10.5 90 90 NNE 8 13 29.97 1015 10 16.09344 0 0
7:55 am 07:55 Partly Cloudy 53 11.7 51 10.6 93 93 NNE 5 7 29.97 1015 10 16.09344 0 0
8:15 am 08:15 Mostly Cloudy 55 12.7 52 11.1 90 90 ENE 8 13 29.91 1013 10 16.09344 0 0
8:35 am 08:35 Mostly Cloudy 57 13.9 52 11.1 83 83 NNE 6 9 29.94 1014 10 16.09344 0 0
8:55 am 08:55 Partly Cloudy 58 14.2 52 11 81 81 ENE 6 9 29.94 1014 10 16.09344 0 0
9:15 am 09:15 Sunny 59 14.9 52 11 78 78 ENE 7 11 29.94 1014 10 16.09344 0 0
9:35 am 09:35 Sunny 60 15.3 51 10.7 74 74 NNE 3 6 29.94 1014 10 16.09344 0 0
9:55 am 09:55 Sunny 60 15.5 53 11.8 79 79 NNW 10 17 30 1016 10 16.09344 0 0
10:15 am 10:15 Sunny 61 16.3 53 11.7 74 74 NNW 6 9 29.97 1015 10 16.09344 0 0
10:35 am 10:35 Sunny 62 16.9 53 11.4 70 70 N 7 11 29.97 1015 10 16.09344 0 0
10:55 am 10:55 Sunny 64 17.7 52 11 65 65 N 6 9 29.97 1015 10 16.09344 0 0
11:15 am 11:15 Sunny 65 18.5 52 11.1 62 62 NNE 5 7 29.97 1015 10 16.09344 0 0
11:35 am 11:35 Sunny 67 19.5 50 10.2 55 55 N 6 9 29.97 1015 10 16.09344 0 0
11:55 am 11:55 Sunny 68 20.1 51 10.5 54 54 NNW 8 13 29.94 1014 10 16.09344 0 0
12:15 pm 12:15 Sunny 69 20.6 51 10.4 52 52 NNW 6 9 29.94 1014 10 16.09344 0 0
12:35 pm 12:35 Sunny 69 20.5 52 10.9 54 54 WNW 10 17 29.94 1014 10 16.09344 0 0
12:55 pm 12:55 Sunny 69 20.6 52 11.3 55 55 W 10 17 29.94 1014 10 16.09344 0 0
1:15 pm 13:15 Sunny 70 20.9 52 11.1 54 54 NW 8 13 29.91 1013 10 16.09344 0 0
1:35 pm 13:35 Partly Cloudy 70 21.1 52 11 53 53 NW 9 15 29.94 1014 10 16.09344 0 0
1:55 pm 13:55 Sunny 70 21.2 52 10.9 52 52 W 8 13 29.91 1013 10 16.09344 0 0
2:15 pm 14:15 Sunny 70 21.2 52 11.1 53 53 WNW 9 15 29.91 1013 10 16.09344 0 0
2:35 pm 14:35 Sunny 71 21.5 52 11.3 52 52 W 10 17 29.91 1013 10 16.09344 0 0
2:55 pm 14:55 Sunny 71 21.8 52 11.3 51 51 WNW 10 17 29.91 1013 10 16.09344 0 0
3:15 pm 15:15 Partly Cloudy 72 22.1 53 11.4 51 51 WNW 6 9 29.91 1013 10 16.09344 0 0
3:35 pm 15:35 Partly Cloudy 72 22.3 52 10.9 49 49 WNW 12 19 29.88 1012 10 16.09344 0 0
3:55 pm 15:55 Sunny 73 22.7 53 11.5 49 49 WNW 9 15 29.91 1013 10 16.09344 0 0
4:15 pm 16:15 Partly Cloudy 72 22.2 53 11.5 51 51 NW 7 11 29.91 1013 10 16.09344 0 0
4:35 pm 16:35 Partly Cloudy 72 22 52 11.3 51 51 WNW 7 11 29.91 1013 10 16.09344 0 0
4:55 pm 16:55 Partly Cloudy 73 22.7 53 11.7 50 50 W 7 11 29.88 1012 10 16.09344 0 0
5:15 pm 17:15 Partly Cloudy 74 23.1 53 11.4 48 48 W 7 11 29.85 1011 10 16.09344 0 0
5:35 pm 17:35 Sunny 73 22.8 52 11 47 47 W 7 11 29.85 1011 10 16.09344 0 0
5:55 pm 17:55 Partly Cloudy 71 21.7 52 11.1 51 51 WNW 5 7 29.88 1012 10 16.09344 0 0
6:15 pm 18:15 Cloudy 70 21.3 53 11.7 54 54 Calm 29.88 1012 10 16.09344 0 0
6:35 pm 18:35 Partly Cloudy 72 22 52 11.3 51 51 Calm 29.91 1013 10 16.09344 0 0
6:55 pm 18:55 Partly Cloudy 71 21.8 52 11.2 51 51 Calm 29.91 1013 10 16.09344 0 0
7:15 pm 19:15 Partly Cloudy 70 21.1 53 11.6 55 55 Calm 29.91 1013 10 16.09344 0 0
7:35 pm 19:35 Sunny 67 19.4 54 12.1 63 63 Calm 29.94 1014 10 16.09344 0 0
7:55 pm 19:55 Clear 64 17.5 55 12.6 73 73 ESE 5 7 29.94 1014 10 16.09344 0 0
8:15 pm 20:15 Clear 61 15.9 55 12.6 81 81 E 3 6 29.97 1015 10 16.09344 0 0
8:35 pm 20:35 Clear 60 15.6 55 12.5 82 82 ESE 6 9 29.97 1015 10 16.09344 0 0
8:55 pm 20:55 Clear 60 15.5 54 12.3 81 81 Calm 29.97 1015 10 16.09344 0 0
9:15 pm 21:15 Clear 62 16.5 54 12.2 76 76 SSE 5 7 29.97 1015 10 16.09344 0 0
9:35 pm 21:35 Clear 61 16 55 12.7 81 81 SSE 3 6 30 1016 10 16.09344 0 0
9:55 pm 21:55 Clear 60 15.6 54 12 79 79 SSE 3 6 30 1016 10 16.09344 0 0
10:15 pm 22:15 Clear 59 14.9 53 11.6 81 81 Calm 30 1016 10 16.09344 0 0
10:35 pm 22:35 Clear 58 14.7 53 11.6 82 82 Calm 30 1016 10 16.09344 0 0
10:55 pm 22:55 Clear 60 15.4 53 11.5 78 78 Calm 30 1016 10 16.09344 0 0
11:15 pm 23:15 Clear 59 15.1 53 11.5 79 79 SSW 5 7 30.03 1017 10 16.09344 0 0
11:35 pm 23:35 Clear 59 14.8 53 11.5 81 81 SSW 5 7 30.03 1017 10 16.09344 0 0
11:55 pm 23:55 Clear 59 15.1 53 11.5 79 79 SSW 6 9 30.03 1017 10 16.09344 0 0

Powered by AerisWeather